Location: Eaton Estates
(41.3089°N, 82.0057°W)
Time: 01:23:11
(UTC+00:00)

Cosmos 1633 - Pass Details

Date: 17 June 2021
Orbit: 461 x 476 km, 82.5° (Epoch: 02 August)

Event Time Altitude Azimuth Distance (km) Brightness Sun altitude
Exits shadow 07:03:30 30° 108° (ESE) 863 3.8 -21.7°
Maximum altitude 07:03:57 31° 92° (E) 840 3.9 -21.7°
Drops below altitude 10° 07:07:06 10° 29° (NNE) 1,618 6.4 -21.4°
Sets 07:09:20 0° 18° (NNE) 2,500 7.7 -21.2°
